FW8309 Weather Reports


time (UTC)temp
F
wind
direction
speed
knots
gust
knots
rain 1hr
in
rain 24hr
in
rain mn
in
humidity
%
barometer
mb
20260506220918 55 117 2.6 4.3 0.00 0.00 0.00 86 1019.9
20260506215417 56 187 0.9 0.9 0.00 0.00 0.00 86 1019.7
20260506213914 56 215 0.9 1.7 0.00 0.00 0.00 86 1019.7
20260506212410 57 213 0.9 1.7 0.00 0.00 0.00 85 1019.4
20260506210910 57 170 1.7 2.6 0.00 0.00 0.00 86 1019.8
20260506205410 57 242 0.0 0.9 0.00 0.00 0.00 85 1019.8
20260506203907 57 151 2.6 4.3 0.00 0.00 0.00 85 1019.8
20260506202403 58 134 3.5 5.2 0.00 0.00 0.00 82 1019.6
20260506200859 59 212 1.7 1.7 0.00 0.00 0.00 81 1019.2
20260506195354 61 245 2.6 4.3 0.00 0.00 0.00 77 1019.3
20260506193851 61 167 1.7 1.7 0.00 0.00 0.00 78 1019.0
20260506192347 60 276 1.7 1.7 0.00 0.00 0.00 78 1019.0
20260506190843 60 95 0.9 0.9 0.00 0.00 0.00 79 1019.1
20260506185339 60 165 2.6 6.1 0.00 0.00 0.00 78 1018.9
20260506183837 60 102 3.5 6.1 0.00 0.00 0.00 79 1019.2
20260506182332 60 149 3.5 4.3 0.00 0.00 0.00 79 1019.1
20260506180831 59 177 0.9 1.7 0.00 0.00 0.00 80 1019.2
20260506175326 58 97 2.6 4.3 0.00 0.00 0.00 83 1018.9
20260506173824 58 192 1.7 2.6 0.00 0.00 0.00 83 1019.3
20260506172320 56 95 5.2 6.1 0.00 0.00 0.00 87 1019.3
20260506170818 55 146 3.5 5.2 0.00 0.00 0.00 89 1019.7
20260506165316 56 271 2.6 2.6 0.00 0.00 0.00 89 1019.4
20260506163813 55 269 0.0 0.0 0.00 0.00 0.00 92 1019.3
20260506162313 54 284 1.7 1.7 0.00 0.00 0.00 93 1019.3
20260506160811 53 180 1.7 1.7 0.00 0.00 0.00 95 1019.1
20260506155309 52 240 0.0 0.9 0.00 0.00 0.00 97 1019.1
20260506153427 52 353 0.0 0.9 0.00 0.00 0.00 98 1019.5
20260506151925 52 242 0.0 0.9 0.00 0.00 0.00 98 1019.2
20260506150421 52 251 0.9 0.9 0.00 0.00 0.00 99 1019.3
20260506144918 51 254 0.0 0.9 0.00 0.00 0.00 99 1019.2
20260506143415 51 248 0.0 0.0 0.00 0.00 0.00 99 1019.1
20260506141915 51 230 0.0 0.0 0.00 0.00 0.00 99 1019.0
20260506140413 51 255 0.0 0.0 0.00 0.00 0.00 99 1019.0
20260506134909 51 277 0.9 0.9 0.00 0.00 0.00 99 1019.0
20260506133405 52 255 0.0 0.0 0.00 0.00 0.00 99 1019.0
20260506131903 52 255 0.0 0.0 0.00 0.00 0.00 99 1018.6
20260506130403 52 247 0.0 0.0 0.00 0.00 0.00 99 1018.6
20260506124904 52 266 0.9 1.7 0.00 0.00 0.00 98 1018.3
20260506123402 52 248 0.0 0.0 0.00 0.00 0.00 98 1018.3
20260506121900 52 252 0.9 1.7 0.00 0.00 0.00 99 1018.2
20260506120357 52 249 0.0 0.0 0.00 0.00 0.00 99 1018.3
20260506114856 52 244 0.0 0.0 0.00 0.00 0.00 99 1018.0
20260506113354 52 246 0.0 0.0 0.00 0.00 0.00 99 1018.0
20260506111851 52 244 0.0 0.0 0.00 0.00 0.00 99 1017.8
20260506110349 52 249 0.0 0.0 0.00 0.00 0.00 99 1017.8
20260506104846 52 249 0.0 0.0 0.00 0.00 0.00 99 1017.9
20260506103345 52 237 0.0 0.0 0.00 0.00 0.00 99 1017.6
20260506101842 52 245 0.0 0.0 0.00 0.00 0.00 98 1017.3
20260506100340 52 247 0.0 0.0 0.00 0.00 0.00 99 1017.4
20260506094838 52 238 0.0 0.0 0.00 0.00 0.00 99 1017.5
20260506093337 52 238 0.0 0.0 0.00 0.00 0.00 99 1017.5
20260506091835 52 246 0.0 0.0 0.00 0.00 0.00 99 1017.2
20260506090333 52 241 0.0 0.0 0.00 0.00 0.00 99 1017.2
20260506084829 52 250 0.0 0.0 0.00 0.00 0.00 98 1017.2
20260506083326 53 256 0.0 0.0 0.00 0.00 0.00 98 1017.0
20260506081821 53 248 0.0 0.0 0.00 0.00 0.00 98 1017.0
20260506080319 53 268 0.0 0.0 0.00 0.00 0.00 98 1017.1
20260506073315 52 250 0.0 0.0 0.00 0.00 0.00 99 1017.0
20260506071813 52 249 0.0 0.0 0.00 0.00 0.00 99 1016.8
20260506070310 52 250 0.0 0.0 0.00 0.00 0.00 99 1016.7
20260506061801 51 250 0.0 0.0 0.00 0.00 0.00 99 1016.5
20260506060300 51 246 0.0 0.0 0.00 0.00 0.00 99 1016.3
20260506050250 51 247 0.0 0.0 0.00 0.00 0.00 99 1016.0
20260506044746 51 257 0.0 0.0 0.00 0.00 0.00 99 1015.9
20260506043244 52 249 0.0 0.0 0.00 0.00 0.00 98 1015.6
20260506041739 53 252 0.0 0.0 0.00 0.00 0.00 97 1016.0
20260506040236 54 249 0.0 0.0 0.00 0.00 0.00 96 1015.6
20260506034732 55 254 0.0 0.0 0.00 0.00 0.00 94 1015.4
20260506033229 56 250 0.0 0.0 0.00 0.00 0.00 92 1015.2
20260506031725 56 240 0.0 0.0 0.00 0.00 0.00 90 1015.0
20260506030224 57 240 0.0 0.0 0.00 0.00 0.00 89 1014.9
20260506024720 58 260 0.9 0.9 0.00 0.00 0.00 87 1015.0
20260506023216 58 222 0.0 0.9 0.00 0.00 0.00 86 1014.8
20260506021715 59 251 0.0 0.9 0.00 0.00 0.00 85 1014.6
20260506020212 59 245 0.9 0.9 0.00 0.00 0.00 84 1014.5
20260506014709 60 219 0.0 0.9 0.00 0.00 0.00 82 1014.2
20260506013206 62 34 0.9 0.9 0.00 0.00 0.00 79 1014.2
20260506011702 62 249 0.9 0.9 0.00 0.00 0.00 79 1014.1
20260506010159 64 241 0.9 0.9 0.00 0.00 0.00 77 1014.3
20260506004654 63 139 1.7 1.7 0.00 0.00 0.00 77 1014.1
20260506003151 63 115 6.1 9.6 0.00 0.00 0.00 77 1014.1
20260506001650 64 166 1.7 2.6 0.00 0.00 0.00 76 1014.2
20260506000148 64 196 0.9 0.9 0.00 0.00 0.00 75 1014.3
20260505234645 64 185 2.6 2.6 0.00 0.00 0.00 75 1014.4
20260505233142 63 177 0.9 1.7 0.00 0.00 0.00 76 1014.3
20260505231639 64 197 1.7 2.6 0.00 0.00 0.00 75 1014.5
20260505230138 64 346 4.3 6.1 0.00 0.00 0.00 75 1014.5
20260505224633 65 231 1.7 1.7 0.00 0.00 0.00 74 1014.3
20260505223130 65 154 3.5 5.2 0.00 0.00 0.00 74 1014.5